www.pogodaiklimat.ru

Погода и климат >> Архив погоды >> Бразилия >> Рио-де-Жанейро >> Макаэ


ПОГОДА в Макаэ

  • Прогноз погоды в Макаэ
  • Монитор погоды в Макаэ

АРХИВ ПОГОДЫ в Макаэ

Время (UTC), дата Ветер
(напр.,м/с)
 
Видим.   Явления Облачность Т
(С)
Тd
(С)
f
(%)
Тe
(С)
Тes
(С)
Комфортность P
(гПа)
Po
(гПа)
Тmin
(С)
Tmax
(С)
R
(мм)
R24
(мм)
S
(см)
16 11.08 Ю 1
{4}
н/о н/о +28.1 +20.8 65 +35 +35 очень
душно
1019.7 1016.9
17 11.08 Ю 1
{4}
н/о н/о +27.6 +20.1 64 +34 +34 очень
душно
1019.4 1016.6
18 11.08 Ю 1
{3}
н/о н/о +26.6 +20.4 69 +33 +33 очень
душно
1019.6 1016.7
19 11.08 ЮВ 1
{3}
н/о н/о +24.8 +20.7 78 +31 +31 очень
душно
1020.0 1017.1
20 11.08 ЮВ 1
{3}
н/о н/о +22.7 +20.6 88 +30 +30 очень
душно
1020.4 1017.5
21 11.08 ЮВ 1
{3}
н/о н/о +22.0 +20.5 91 +28 +28 душно 1021.0 1018.1
22 11.08 ЮВ 1
{3}
н/о н/о +21.5 +20.3 93 +27 +27 душно 1021.8 1018.9
23 11.08 ЮВ 1
{1}
н/о н/о +21.1 +20.1 94 +26 +26 душно 1022.5 1019.6
00 12.08 В 1
{1}
н/о н/о +21.2 +20.3 95 +26 +26 душно 1022.6 1019.7
01 12.08 СЗ 1
{1}
н/о н/о +21.0 +20.1 95 +28 +28 очень
душно
1022.5 1019.6
02 12.08 штиль 0
{1}
н/о н/о +20.9 +20.1 95 +25 +25 комфорт 1022.2 1019.3
03 12.08
{1}
н/о н/о +20.7 +19.9 95 1022.0 1019.1
04 12.08 СВ 1
{1}
н/о н/о +20.7 +20.0 96 +27 +27 душно 1021.7 1018.8
05 12.08 В 1
{1}
н/о н/о +20.8 +20.0 95 +27 +27 душно 1021.5 1018.6
06 12.08 СВ 1
{2}
н/о н/о +20.8 +20.1 96 +27 +27 душно 1021.1 1018.2
08 12.08 СВ 1
{1}
н/о н/о +19.9 +19.1 95 +25 +25 комфорт 1020.9 1018.0
09 12.08 СВ 1
{1}
н/о н/о +19.4 +18.7 96 +23 +23 комфорт 1021.2 1018.3
10 12.08 СВ 1
{2}
н/о н/о +20.7 +19.9 95 +27 +27 душно 1021.5 1018.6
11 12.08 СВ 2
{3}
н/о н/о +23.1 +20.4 85 +30 +30 очень
душно
1022.0 1019.1
12 12.08 СВ 2
{4}
н/о н/о +24.8 +20.0 75 +30 +30 душно 1022.3 1019.4
13 12.08 СВ 3
{5}
н/о н/о +26.3 +18.2 61 +31 +31 душно 1021.8 1018.9
14 12.08 В 2
{5}
н/о н/о +26.5 +18.8 63 +32 +32 очень
душно
1020.7 1017.8
15 12.08 СВ 3
{6}
н/о н/о +28.6 +15.0 44 +31 +31 жарко 1019.0 1016.2
16 12.08 СВ 3
{6}
н/о н/о +29.0 +14.4 41 +31 +31 жарко 1017.8 1015.0
17 12.08 СВ 4
{6}
н/о н/о +29.5 +14.2 39 +31 +31 жарко 1017.0 1014.2
18 12.08 СВ 3
{6}
н/о н/о +29.5 +14.2 39 +31 +31 жарко 1016.6 1013.8
19 12.08 В 3
{6}
н/о н/о +24.0 +19.4 75 +29 +29 душно 1017.0 1014.1
20 12.08 В 2
{6}
н/о н/о +23.5 +18.4 73 +28 +28 душно 1017.4 1014.5
21 12.08 СВ 2
{5}
н/о н/о +23.3 +17.1 68 +28 +28 душно 1018.3 1015.4
22 12.08 СВ 2
{4}
н/о н/о +22.1 +17.9 77 +27 +27 душно 1018.9 1016.0
23 12.08 СВ 2
{4}
н/о н/о +21.5 +18.5 83 +26 +26 душно 1019.4 1016.5
00 13.08 СВ 2
{4}
н/о н/о +20.3 +18.3 88 +25 +25 комфорт 1019.2 1016.3
01 13.08 СВ 2
{3}
н/о н/о +20.1 +18.6 91 +24 +24 комфорт 1018.9 1016.0
02 13.08 СВ 2
{3}
н/о н/о +20.4 +18.6 89 +25 +25 комфорт 1018.4 1015.5
03 13.08 СВ 3
{5}
н/о н/о +20.5 +18.7 89 +25 +25 комфорт 1017.7 1014.8
04 13.08 СВ 2
{4}
н/о н/о +20.2 +18.7 91 +24 +24 комфорт 1016.8 1013.9
05 13.08 СВ 2
{5}
н/о н/о +19.7 +18.3 92 +23 +23 комфорт 1016.0 1013.1
06 13.08 СВ 2
{4}
н/о н/о +19.2 +18.1 93 +22 +22 комфорт 1015.4 1012.5
07 13.08 СВ 2
{3}
н/о н/о +18.8 +17.9 95 +21 +21 комфорт 1015.2 1012.3
08 13.08 СВ 2
{3}
н/о н/о +18.1 +17.4 96 +19 +19 1015.2 1012.3
09 13.08 СВ 1
{3}
н/о н/о +17.9 +17.2 96 +19 +19 1015.6 1012.7
10 13.08 СВ 1
{3}
н/о н/о +18.9 +17.5 92 +21 +21 комфорт 1015.8 1012.9
11 13.08 СВ 1
{2}
н/о н/о +22.5 +18.5 78 +28 +28 душно 1016.2 1013.3
12 13.08 СВ 1
{2}
н/о н/о +27.4 +18.4 58 +32 +32 очень
душно
1016.5 1013.7
13 13.08 СВ 1
{3}
н/о н/о +31.0 +16.9 43 +35 +35 очень
душно
1016.1 1013.3
14 13.08 В 1
{2}
н/о н/о +33.3 +16.3 36 +36 +36 очень
душно
1015.5 1012.7
15 13.08 ЮВ 1
{3}
н/о н/о +33.1 +16.0 36 +36 +36 очень
душно
1015.1 1012.3
16 13.08 ЮВ 1
{3}
н/о н/о +32.2 +15.9 38 +35 +35 очень
душно
1014.6 1011.8
20 13.08 ЮЗ 3
{8}
н/о н/о +25.0 +18.5 67 +30 +30 душно 1017.4 1014.5
21 13.08 ЮЗ 4
{10}
н/о н/о +24.1 +18.7 72 +29 +29 душно 1018.3 1015.4
22 13.08 ЮЗ 3
{8}
н/о н/о +23.3 +19.0 77 +30 +30 очень
душно
1019.3 1016.4
23 13.08 ЮЗ 2
{8}
н/о н/о +23.0 +18.6 76 +29 +29 очень
душно
1020.3 1017.4
00 14.08 ЮЗ 2
{7}
н/о н/о +23.0 +19.0 78 +29 +29 очень
душно
1021.0 1018.1
01 14.08 ЮЗ 2
{6}
н/о н/о +22.5 +19.5 83 +29 +29 очень
душно
1021.5 1018.6
02 14.08 ЮЗ 2
{5}
н/о н/о +22.0 +19.4 85 +27 +27 душно 1022.0 1019.1
03 14.08 ЮЗ 2
{6}
н/о н/о +21.5 +19.0 86 +26 +26 душно 1022.1 1019.2
04 14.08 ЮЗ 2
{5}
н/о н/о +21.3 +18.7 85 +26 +26 душно 1021.9 1019.0
05 14.08 ЮЗ 2
{5}
н/о н/о +20.9 +18.6 87 +26 +26 душно 1021.9 1019.0
06 14.08 ЮЗ 2
{4}
н/о н/о +19.8 +18.5 92 +23 +23 комфорт 1022.1 1019.2
07 14.08 ЮЗ 2
{5}
н/о н/о +19.5 +18.5 94 +23 +23 комфорт 1022.2 1019.3 0.4
08 14.08 ЮЗ 2
{5}
н/о н/о +18.8 +17.9 95 +21 +21 комфорт 1023.2 1020.3 3
09 14.08 ЮЗ 2
{5}
н/о н/о +18.2 +17.5 96 +19 +19 1024.3 1021.3 2
10 14.08 ЮЗ 2
{5}
н/о н/о +17.9 +17.2 96 +19 +19 1025.4 1022.4 1
11 14.08 ЮЗ 2
{5}
н/о н/о +17.8 +17.1 96 +19 +19 1026.5 1023.5
12 14.08 ЮЗ 2
{4}
н/о н/о +18.2 +17.4 95 +19 +19 1027.5 1024.5
13 14.08 ЮЗ 3
{5}
н/о н/о +19.5 +16.3 82 +22 +22 комфорт 1027.7 1024.8
14 14.08 ЮЗ 2
{6}
н/о н/о +20.4 +16.6 79 +24 +24 комфорт 1027.5 1024.6
15 14.08 ЮЗ 1
{5}
н/о н/о +19.4 +17.6 89 +23 +23 комфорт 1027.2 1024.3 0.4
16 14.08 ЮЗ 1
{4}
н/о н/о +18.6 +17.2 92 +21 +21 комфорт 1026.9 1023.9 0.4
17 14.08 ЮЗ 2
{6}
н/о н/о +18.4 +17.0 92 +20 +20 1026.7 1023.7 0.4
18 14.08 ЮЗ 2
{5}
н/о н/о +17.4 +16.4 94 +18 +18 1026.9 1023.9 0.8
19 14.08 ЮЗ 2
{5}
н/о н/о +16.6 +15.8 95 +17 +17 1027.3 1024.3 0.2
20 14.08 ЮЗ 2
{4}
н/о н/о +16.6 +15.5 93 +17 +17 1027.8 1024.8
21 14.08 ЮЗ 1
{4}
н/о н/о +16.2 +15.1 93 +17 +17 1028.5 1025.5
22 14.08 ЮЗ 2
{5}
н/о н/о +16.0 +14.6 91 +16 +16 1029.0 1026.0
23 14.08 З 2
{4}
н/о н/о +16.1 +13.7 86 +16 +16 1029.2 1026.2
00 15.08 ЮЗ 2
{5}
н/о н/о +16.5 +13.6 83 +17 +17 1029.4 1026.4
01 15.08 ЮЗ 2
{5}
н/о н/о +16.1 +13.6 85 +16 +16 1029.5 1026.5
02 15.08 ЮЗ 1
{4}
н/о н/о +15.8 +13.4 86 +16 +16 1029.5 1026.5
03 15.08 ЮЗ 1
{3}
н/о н/о +16.0 +13.6 86 +17 +17 1029.6 1026.6
04 15.08 ЮЗ 1
{5}
н/о н/о +15.8 +14.1 90 +16 +16 1029.4 1026.4
05 15.08 З 2
{4}
н/о н/о +15.8 +13.9 88 +16 +16 1029.0 1026.0
06 15.08 З 1
{3}
н/о н/о +15.5 +13.7 89 +16 +16 1028.6 1025.6
07 15.08 СЗ 1
{2}
н/о н/о +15.3 +13.8 91 +16 +16 1028.6 1025.6
08 15.08 ЮЗ 1
{3}
н/о н/о +15.6 +14.2 91 +16 +16 1029.6 1026.6
09 15.08 З 1
{3}
н/о н/о +15.3 +14.2 93 +16 +16 1030.1 1027.1 1
10 15.08 З 1
{2}
н/о н/о +15.6 +14.8 95 +17 +17 1030.6 1027.6 0.2
11 15.08 СЗ 1
{2}
н/о н/о +16.9 +15.9 94 +18 +18 1031.4 1028.4 0.2
12 15.08 ЮЗ 1
{2}
н/о н/о +19.1 +16.4 84 +22 +22 комфорт 1032.5 1029.5
13 15.08 ЮЗ 1
{2}
н/о н/о +19.8 +15.4 76 +23 +23 комфорт 1032.3 1029.3
14 15.08 ЮВ 1
{2}
н/о н/о +21.8 +14.4 63 +25 +25 комфорт 1031.7 1028.8
15 15.08 ЮВ 1
{3}
н/о н/о +21.0 +12.9 60 +25 +25 комфорт 1030.9 1028.0
16 15.08 ЮВ 2
{3}
н/о н/о +21.5 +13.1 59 +24 +24 комфорт 1029.8 1026.9
17 15.08 ЮВ 1
{4}
н/о н/о +20.1 +12.9 63 +23 +23 комфорт 1029.3 1026.4
18 15.08 ЮВ 1
{4}
н/о н/о +20.0 +12.6 62 +23 +23 комфорт 1029.0 1026.1
19 15.08 ЮВ 1
{3}
н/о н/о +19.4 +12.2 63 +22 +22 комфорт 1029.3 1026.3
20 15.08 ЮВ 1
{3}
н/о н/о +18.6 +11.9 65 +20 +20 1029.3 1026.3
21 15.08 ЮВ 1
{3}
н/о н/о +18.0 +11.4 65 +19 +19 1029.3 1026.3
22 15.08 В 1
{2}
н/о н/о +17.8 +10.9 64 +19 +19 1029.6 1026.6
23 15.08 СВ 1
{2}
н/о н/о +18.1 +11.2 64 +20 +20 1029.9 1026.9
00 16.08 СЗ 1
{1}
н/о н/о +17.2 +12.3 73 +18 +18 1030.0 1027.0
01 16.08 СЗ 1
{1}
н/о н/о +16.9 +12.6 76 +18 +18 1030.1 1027.1
03 16.08 СЗ 1
{1}
н/о н/о +15.7 +13.1 85 +17 +17 1029.1 1026.1
04 16.08 С 1
{1}
н/о н/о +15.5 +13.2 86 +17 +17 1028.4 1025.4
05 16.08 СЗ 1
{2}
н/о н/о +15.4 +12.6 83 +16 +16 1027.7 1024.7
06 16.08 С 1
{2}
н/о н/о +15.5 +12.9 84 +17 +17 1027.1 1024.1
07 16.08
{2}
н/о н/о +16.0 +12.1 78 1026.8 1023.8
08 16.08 С 1
{1}
н/о н/о +16.1 +12.3 78 +17 +17 1027.0 1024.0
09 16.08 СВ 1
{2}
н/о н/о +16.1 +12.4 79 +17 +17 1027.4 1024.4
10 16.08 СВ 1
{2}
н/о н/о +17.3 +11.9 71 +18 +18 1027.8 1024.8
11 16.08 СВ 2
{3}
н/о н/о +19.4 +11.6 61 +21 +21 комфорт 1028.3 1025.3
12 16.08 СВ 2
{3}
н/о н/о +21.2 +10.9 52 +23 +23 комфорт 1028.8 1025.9
13 16.08 СВ 2
{4}
н/о н/о +22.5 +9.9 45 +24 +24 комфорт 1028.5 1025.6
14 16.08 СВ 3
{6}
н/о н/о +22.5 +10.1 45 +24 +24 комфорт 1027.9 1025.0
15 16.08 СВ 2
{5}
н/о н/о +22.4 +10.3 46 +24 +24 комфорт 1026.9 1024.0
16 16.08 СВ 3
{5}
н/о н/о +23.4 +9.9 42 +25 +25 комфорт 1025.7 1022.8
17 16.08 В 3
{6}
н/о н/о +22.4 +13.4 57 +25 +25 комфорт 1024.5 1021.6
18 16.08 В 3
{6}
н/о н/о +22.1 +13.3 57 +25 +25 комфорт 1024.1 1021.2
19 16.08 СВ 3
{6}
н/о н/о +22.6 +10.4 46 +24 +24 комфорт 1024.3 1021.4
20 16.08 СВ 3
{5}
н/о н/о +21.1 +11.3 54 +23 +23 комфорт 1024.5 1021.6
21 16.08 СВ 2
{5}
н/о н/о +19.7 +12.0 61 +22 +22 комфорт 1024.8 1021.9
22 16.08 СВ 2
{4}
н/о н/о +18.5 +12.0 66 +20 +20 1025.4 1022.4
23 16.08 СВ 2
{4}
н/о н/о +17.3 +12.5 73 +18 +18 1025.9 1022.9
00 17.08 СВ 1
{3}
н/о н/о +15.9 +12.5 80 +17 +17 1026.0 1023.0
01 17.08 С 1
{2}
н/о н/о +15.4 +12.6 83 +16 +16 1025.9 1022.9
02 17.08 СВ 1
{2}
н/о н/о +15.0 +12.5 85 +16 +16 1025.8 1022.8
03 17.08 СВ 1
{2}
н/о н/о +15.1 +12.2 83 +16 +16 1025.3 1022.3
04 17.08 СВ 1
{2}
н/о н/о +15.0 +12.3 84 +15 +15 1024.4 1021.4
05 17.08 СВ 1
{2}
н/о н/о +14.8 +12.3 85 +15 +15 1023.6 1020.6
06 17.08 СВ 2
{3}
н/о н/о +15.2 +12.5 84 +15 +15 1023.0 1020.0
07 17.08 СВ 2
{3}
н/о н/о +14.9 +12.3 84 +15 +15 1022.3 1019.3
08 17.08 СВ 2
{3}
н/о н/о +14.7 +12.0 84 +15 +15 1022.6 1019.6
09 17.08 СВ 2
{3}
н/о н/о +14.6 +11.7 83 +15 +15 1022.8 1019.8
10 17.08 СВ 2
{3}
н/о н/о +16.9 +12.4 75 +17 +17 1023.1 1020.1
12 17.08 СВ 3
{6}
н/о н/о +22.8 +13.5 56 +26 +26 жарко 1023.8 1020.9
13 17.08 СВ 3
{6}
н/о н/о +24.5 +11.2 43 +26 +26 жарко 1023.4 1020.5
14 17.08 С 3
{6}
н/о н/о +26.0 +10.2 37 +27 +27 жарко 1022.6 1019.7
15 17.08 СВ 3
{5}
н/о н/о +26.8 +10.6 36 +28 +28 жарко 1021.4 1018.5
16 17.08 СВ 3
{6}
н/о н/о +26.0 +12.9 44 +28 +28 жарко 1019.7 1016.8
17 17.08 СВ 3
{6}
н/о н/о +26.1 +13.0 44 +28 +28 жарко 1018.4 1015.5
18 17.08 СВ 4
{6}
н/о н/о +25.7 +12.0 42 +27 +27 жарко 1017.8 1014.9
19 17.08 СВ 3
{6}
н/о н/о +24.7 +13.5 50 +27 +27 жарко 1017.8 1014.9
20 17.08 СВ 4
{6}
н/о н/о +22.6 +14.4 60 +26 +26 жарко 1017.9 1015.0
21 17.08 СВ 3
{6}
н/о н/о +20.8 +15.0 69 +24 +24 комфорт 1018.3 1015.4
22 17.08 СВ 3
{6}
н/о н/о +19.4 +15.2 77 +21 +21 комфорт 1019.0 1016.1
23 17.08 СВ 2
{4}
н/о н/о +18.7 +15.6 82 +20 +20 1019.3 1016.4
00 18.08 СВ 2
{3}
н/о н/о +18.4 +15.6 84 +20 +20 1019.2 1016.3
01 18.08 СВ 2
{4}
н/о н/о +17.9 +15.5 86 +18 +18 1019.4 1016.5
02 18.08 СВ 2
{4}
н/о н/о +18.0 +15.6 86 +19 +19 1019.2 1016.3
03 18.08 СВ 2
{4}
н/о н/о +17.9 +15.8 88 +18 +18 1018.6 1015.7
04 18.08 СВ 3
{4}
н/о н/о +18.2 +15.5 84 +19 +19 1017.7 1014.8
05 18.08 СВ 2
{5}
н/о н/о +17.8 +15.0 84 +18 +18 1017.1 1014.2
06 18.08 СВ 2
{4}
н/о н/о +17.1 +15.0 87 +18 +18 1016.7 1013.8
07 18.08 СВ 2
{4}
н/о н/о +16.4 +14.7 90 +16 +16 1016.3 1013.4
08 18.08 СВ 2
{4}
н/о н/о +16.1 +14.3 89 +16 +16 1016.4 1013.4
09 18.08 СВ 1
{3}
н/о н/о +16.2 +14.1 87 +17 +17 1016.7 1013.7
11 18.08 СВ 1
{2}
н/о н/о +22.4 +14.5 61 +26 +26 жарко 1017.1 1014.2
13 18.08 СЗ 3
{5}
н/о н/о +29.2 +10.3 31 +29 +29 жарко 1016.3 1013.5
14 18.08 СЗ 3
{5}
н/о н/о +30.5 +10.1 28 +30 +30 жарко 1015.3 1012.5

 

Местоположение метеостанции Макаэ (Рио-де-Жанейро, Бразилия): широта -22.38 долгота -41.81 высота над уровнем моря 34 м.

В архиве по умолчанию представлена погода в Макаэ за последнюю неделю. Архивные данные за месяц целиком и за предыдущие месяцы, начиная с января 2011 года, Вы можете получить, выбрав интересующий диапазон дат из раскрывающегося списка и нажав кнопку "Ввод!".


*Определитесь, кто Вы:
робот инопланетянин человек

Внимание! Время в таблицах - всемирное. Для получения местного времени необходимо прибавить поправку, которая равна -3 ч.

Смотрите также архив погоды в соседних городах и на ближайших метеорологических станциях:

Погода в Кордейру (Рио-де-Жанейро, Бразилия) (69 км)
Погода в Силва-Жардине (Рио-де-Жанейро, Бразилия) (70 км)
Погода в Арраял-ду-Кабу (Рио-де-Жанейро, Бразилия) (70 км)
Погода в Кампусе (Рио-де-Жанейро, Бразилия) (86 км)
Погода в Сан-Томе (Рио-де-Жанейро, Бразилия) (87 км)
Погода в Кампусе (Рио-де-Жанейро, Бразилия) (87 км)
Погода в Нова-Фрибургу (Рио-де-Жанейро, Бразилия) (90 км)
Погода в Камбуси (Рио-де-Жанейро, Бразилия) (90 км)
Погода в Сакуареме (Рио-де-Жанейро, Бразилия) (99 км)
Погода в Терезополисе (Рио-де-Жанейро, Бразилия) (122 км)

Пояснения к столбцам:

Ветер - указаны скорость ветра в м/с - средняя за 10 мин, порывы в срок и между сроками (в фигурных скобках) и направление, откуда дует ветер: С - северный, СВ - северо-восточный, В - восточный, ЮВ - юго-восточный, Ю - южный, ЮЗ - юго-западный, З - западный, СЗ - северо-западный.
Видимость - горизонтальная дальность видимости в метрах или километрах. При видимости от 1 до 10 км при отсутствии осадков обычно наблюдается дымка, при ухудшении видимости до 1 км и менее - туман. В сухую погоду видимость может ухудшаться дымом, пылью или мглою.
Явления - указаны атмосферные явления, наблюдавшиеся в срок или в последний час перед сроком; фигурными скобками обозначены явления, наблюдавшиеся между сроками (за 1-3 часа до срока); квадратными скобками обозначены град или гололедные отложения с указанием их диаметра в мм.
Облачность - указаны через наклонную черту общая и нижняя облачность в баллах и высота нижней границы облаков в метрах; квадратными скобками обозначены формы облаков: Ci - перистые, Cs - перисто-слоистые, Cc - перисто-кучевые, Ac - высококучевые, As - высокослоистые, Sc - слоисто-кучевые, Ns - слоисто-дождевые, Cu - кучевые, Cb - кучево-дождевые. Подробнее классификацию облаков см. в Атласе облаков (PDF).
T - Температура воздуха - температура, измеренная на высоте 2 м над землей.
Td - Температура точки росы - температура, при понижении до которой содержащийся в воздухе водяной пар достигнет насыщения.
f - Относительная влажность воздуха - влажноcть воздуха, измеренная на высоте 2 м над землей.
Te - Эффективная температура - температура, которую ощущает одетый по сезону человек в тени. Характеристика душности погоды. При расчете учитывается влияние влажности воздуха и скорости ветра на теплоощущения человека.
Tes - Эффективная температура на солнце - температура, которую ощущает человек, с поправкой на солнечный нагрев. Характеристика знойности погоды. Зависит от высоты солнца над горизонтом, облачности и скорости ветра. Ночью, в пасмурную погоду, а также при ветре 12 м/с и более поправка равна нулю.
P - Атмосферное давление - приведенное к уровню моря атмосферное давление.
Po - Атмосферное давление - измеренное на уровне метеостанции атмосферное давление.
Tmin - Минимальная температура - минимум температуры воздуха на высоте 2 м над землей.
Tmax - Максимальная температура - максимум температуры воздуха на высоте 2 м над землей.
R - Количество осадков - Количество выпавших осадков за период времени, мм. При наведении курсора мыши на число - период времени, за который выпало указанное количество осадков.
R24 - Количество осадков - Количество выпавших осадков за 24 часа, мм.
S - Снежный покров - Высота снежного покрова, см. При наведении курсора мыши на число - состояние снежного покрова и степень покрытия местности в баллах.